EN

Hourly Weather Pardubice

Today, 21 April, Wednesday

Time Temperature Precipitation Wind Pressure Humidity
00:00 +8°C° 0 mm 1 mps 740 mmHg 81%
01:00 +7°C° 0 mm 1 mps 741 mmHg 82%
02:00 +7°C° 0 mm 1 mps 740 mmHg 83%
03:00 +7°C° 0 mm 1 mps 740 mmHg 84%
04:00 +7°C° 0 mm 1 mps 740 mmHg 86%
05:00 +7°C° 0 mm 1 mps 740 mmHg 84%
06:00 +8°C° 0 mm 1 mps 741 mmHg 82%
07:00 +9°C° 0 mm 1 mps 741 mmHg 79%
08:00 +10°C° 0 mm 2 mps 741 mmHg 75%
09:00 +13°C° 0 mm 2 mps 741 mmHg 70%
10:00 +13°C° 0 mm 3 mps 740 mmHg 65%
11:00 +14°C° 0.1 mm 3 mps 740 mmHg 60%
12:00 +16°C° 0.1 mm 3 mps 740 mmHg 54%
13:00 +17°C° 0.1 mm 4 mps 740 mmHg 49%
14:00 +17°C° 0 mm 3 mps 739 mmHg 50%
15:00 +16°C° 0 mm 3 mps 739 mmHg 51%
16:00 +16°C° 0 mm 3 mps 739 mmHg 51%
17:00 +15°C° 0 mm 2 mps 739 mmHg 57%
18:00 +13°C° 0 mm 2 mps 739 mmHg 63%
19:00 +10°C° 0 mm 2 mps 739 mmHg 68%
20:00 +10°C° 0 mm 2 mps 740 mmHg 71%
21:00 +9°C° 0 mm 2 mps 740 mmHg 73%
22:00 +8°C° 0 mm 2 mps 740 mmHg 75%
23:00 +7°C° 0 mm 2 mps 740 mmHg 78%

Tomorrow, 22 April, Thursday

Time Temperature Precipitation Wind Pressure Humidity
00:00 +7°C° 0 mm 2 mps 741 mmHg 80%
01:00 +6°C° 0 mm 2 mps 741 mmHg 83%
02:00 +5°C° 0 mm 2 mps 741 mmHg 85%
03:00 +4°C° 0 mm 3 mps 741 mmHg 88%
04:00 +4°C° 0 mm 3 mps 742 mmHg 91%
05:00 +3°C° 0.1 mm 4 mps 742 mmHg 84%
06:00 +3°C° 0.1 mm 4 mps 743 mmHg 77%
07:00 +2°C° 0.1 mm 5 mps 743 mmHg 70%
08:00 +3°C° 0 mm 5 mps 744 mmHg 64%
09:00 +4°C° 0 mm 6 mps 744 mmHg 58%
10:00 +5°C° 0 mm 6 mps 744 mmHg 52%
11:00 +7°C° 0 mm 6 mps 744 mmHg 50%
12:00 +8°C° 0 mm 6 mps 744 mmHg 47%
13:00 +9°C° 0 mm 7 mps 744 mmHg 44%
14:00 +9°C° 0 mm 7 mps 744 mmHg 45%
15:00 +9°C° 0 mm 7 mps 744 mmHg 46%
16:00 +9°C° 0 mm 7 mps 743 mmHg 48%
17:00 +8°C° 0 mm 6 mps 744 mmHg 53%
18:00 +6°C° 0 mm 5 mps 744 mmHg 58%
19:00 +5°C° 0 mm 4 mps 745 mmHg 63%
20:00 +4°C° 0 mm 4 mps 745 mmHg 69%
21:00 +4°C° 0 mm 4 mps 745 mmHg 74%
22:00 +3°C° 0 mm 4 mps 746 mmHg 79%
23:00 +3°C° 0 mm 4 mps 746 mmHg 83%

Day after tomorrow, 23 April, Friday

Time Temperature Precipitation Wind Pressure Humidity
00:00 +2°C° 0 mm 3 mps 746 mmHg 86%
01:00 +1°C° 0 mm 3 mps 746 mmHg 89%
02:00 +1°C° 0 mm 3 mps 746 mmHg 91%
03:00 +1°C° 0 mm 3 mps 746 mmHg 93%
04:00 0°C° 0 mm 3 mps 746 mmHg 95%
05:00 0°C° 0 mm 4 mps 747 mmHg 90%
06:00 +1°C° 0 mm 4 mps 747 mmHg 85%
07:00 +2°C° 0 mm 5 mps 747 mmHg 80%
08:00 +2°C° 0 mm 5 mps 747 mmHg 73%
09:00 +3°C° 0 mm 6 mps 747 mmHg 67%
10:00 +4°C° 0 mm 6 mps 747 mmHg 61%
11:00 +5°C° 0 mm 7 mps 747 mmHg 58%
12:00 +6°C° 0 mm 7 mps 747 mmHg 55%
13:00 +7°C° 0 mm 8 mps 747 mmHg 51%
14:00 +8°C° 0 mm 7 mps 747 mmHg 54%
15:00 +8°C° 0 mm 7 mps 747 mmHg 57%
16:00 +8°C° 0 mm 6 mps 747 mmHg 59%
17:00 +7°C° 0 mm 6 mps 747 mmHg 64%
18:00 +6°C° 0 mm 5 mps 748 mmHg 69%
19:00 +5°C° 0 mm 4 mps 748 mmHg 75%
20:00 +4°C° 0 mm 4 mps 748 mmHg 79%
21:00 +3°C° 0 mm 3 mps 748 mmHg 84%
22:00 +2°C° 0 mm 3 mps 748 mmHg 89%
23:00 +2°C° 0 mm 3 mps 749 mmHg 90%

24 April, Saturday

Time Temperature Precipitation Wind Pressure Humidity
00:00 +3°C° 0 mm 2 mps 749 mmHg 91%
01:00 +2°C° 0 mm 2 mps 749 mmHg 92%
02:00 +2°C° 0 mm 2 mps 749 mmHg 91%
03:00 +2°C° 0 mm 2 mps 749 mmHg 91%
04:00 +2°C° 0 mm 2 mps 749 mmHg 90%
05:00 +3°C° 0 mm 2 mps 749 mmHg 87%
06:00 +4°C° 0 mm 2 mps 749 mmHg 85%
07:00 +4°C° 0 mm 3 mps 749 mmHg 82%
08:00 +5°C° 0 mm 3 mps 749 mmHg 75%
09:00 +6°C° 0 mm 4 mps 748 mmHg 68%
10:00 +7°C° 0 mm 4 mps 748 mmHg 61%
11:00 +8°C° 0 mm 5 mps 748 mmHg 57%
12:00 +9°C° 0 mm 5 mps 748 mmHg 54%
13:00 +10°C° 0 mm 5 mps 747 mmHg 50%
14:00 +9°C° 0 mm 5 mps 747 mmHg 51%
15:00 +9°C° 0 mm 5 mps 747 mmHg 53%
16:00 +9°C° 0 mm 5 mps 747 mmHg 54%
17:00 +8°C° 0 mm 4 mps 747 mmHg 60%
18:00 +6°C° 0 mm 4 mps 747 mmHg 66%
19:00 +4°C° 0 mm 3 mps 748 mmHg 72%
20:00 +3°C° 0 mm 3 mps 748 mmHg 75%
21:00 +3°C° 0 mm 2 mps 748 mmHg 79%
22:00 +2°C° 0 mm 2 mps 748 mmHg 82%
23:00 +2°C° 0 mm 2 mps 748 mmHg 85%

25 April, Sunday

Time Temperature Precipitation Wind Pressure Humidity
00:00 +2°C° 0 mm 2 mps 749 mmHg 87%
01:00 +2°C° 0 mm 1 mps 749 mmHg 89%
02:00 +2°C° 0 mm 1 mps 749 mmHg 90%
03:00 +1°C° 0 mm 1 mps 749 mmHg 91%
04:00 +1°C° 0 mm 1 mps 749 mmHg 93%
05:00 +2°C° 0 mm 1 mps 749 mmHg 86%
06:00 +3°C° 0 mm 1 mps 750 mmHg 80%
07:00 +4°C° 0 mm 1 mps 750 mmHg 74%
08:00 +6°C° 0 mm 1 mps 750 mmHg 64%
09:00 +6°C° 0 mm 2 mps 750 mmHg 53%
10:00 +7°C° 0 mm 2 mps 750 mmHg 43%
11:00 +8°C° 0 mm 2 mps 749 mmHg 41%
12:00 +9°C° 0 mm 2 mps 749 mmHg 39%
13:00 +10°C° 0 mm 2 mps 749 mmHg 37%
14:00 +10°C° 0 mm 2 mps 748 mmHg 37%
15:00 +11°C° 0 mm 1 mps 748 mmHg 37%
16:00 +11°C° 0 mm 1 mps 747 mmHg 38%
17:00 +10°C° 0 mm 1 mps 747 mmHg 44%
18:00 +8°C° 0 mm 1 mps 747 mmHg 50%
19:00 +6°C° 0 mm 1 mps 747 mmHg 56%
20:00 +5°C° 0 mm 1 mps 747 mmHg 58%
21:00 +5°C° 0 mm 1 mps 747 mmHg 60%
22:00 +3°C° 0 mm 2 mps 747 mmHg 62%
23:00 +2°C° 0 mm 2 mps 747 mmHg 64%

26 April, Monday

Time Temperature Precipitation Wind Pressure Humidity
00:00 +2°C° 0 mm 2 mps 747 mmHg 66%
01:00 +1°C° 0 mm 2 mps 747 mmHg 68%
02:00 +1°C° 0 mm 2 mps 746 mmHg 69%
03:00 +1°C° 0 mm 2 mps 746 mmHg 70%
04:00 -1°C° 0 mm 2 mps 746 mmHg 71%
05:00 +2°C° 0 mm 2 mps 746 mmHg 66%
06:00 +3°C° 0 mm 2 mps 745 mmHg 61%
07:00 +5°C° 0 mm 2 mps 745 mmHg 56%
08:00 +7°C° 0 mm 3 mps 745 mmHg 51%
09:00 +7°C° 0 mm 4 mps 745 mmHg 47%
10:00 +9°C° 0 mm 5 mps 744 mmHg 42%
11:00 +10°C° 0 mm 5 mps 743 mmHg 42%
12:00 +12°C° 0 mm 5 mps 743 mmHg 42%
13:00 +13°C° 0 mm 6 mps 742 mmHg 43%
14:00 +13°C° 0 mm 6 mps 741 mmHg 47%
15:00 +11°C° 0 mm 6 mps 741 mmHg 52%
16:00 +11°C° 0 mm 6 mps 740 mmHg 57%
17:00 +10°C° 0 mm 6 mps 740 mmHg 60%
18:00 +9°C° 0 mm 5 mps 740 mmHg 63%
19:00 +7°C° 0 mm 5 mps 739 mmHg 66%
20:00 +7°C° 0 mm 5 mps 739 mmHg 66%
21:00 +7°C° 0 mm 5 mps 739 mmHg 66%
22:00 +7°C° 0 mm 5 mps 738 mmHg 66%
23:00 +7°C° 0 mm 5 mps 738 mmHg 70%
Show more

We Need Your Consent

Meteoprog and our Service Providers may store and access personal data such as cookies, device identifiers or other similar technologies on your device and process such data to personalise content and ads, as well as provide social media features and to analyse the traffic.

  • Store and/or access information on your device

    Cookies, device identifiers or other information can be stored or accessed on your device for the purposes indicated above.

  • Personalised ads and content, ad and content measurement, audience insights, and products development

    Ads and content can be personalised based on a profile. More data can be added to better personalise ads and content. Ad and content performance can be measured. Insights about the audience who saw the ads and content can be derived. Such data can be used to develop or improve user’s experience, systems and software.

By clicking ‘I Agree’ you will allow the use of indicated cookies, device identifiers, web beacons or other similar technologies. Your settings can be changed in the browser on your device.

For certain purposes, legitimate interests may be relied on, rather than consent. You can read more about this in our Privacy and Cookie Policy.